Regional Weather Roundup
Issued by NWS

Home | Current Version | Previous Version | Text Only | Print | Product List | Glossary On
Versions: 1 2 3 4 5 6 7 8 9 10 11 12 13 14 15 16 17 18 19 20 21 22 23 24 25 26 27 28 29 30 31 32 33 34 35 36 37 38 39 40 41 42 43 44 45 46 47 48 49 50
000
ASUS43 KDTX 230110
RWRMI
MICHIGAN HOURLY REGIONAL WEATHER ROUNDUP
NATIONAL WEATHER SERVICE DETROIT/PONTIAC MI
900 PM EDT FRI AUG 22 2014

NOTE: "FAIR" INDICATES FEW OR NO CLOUDS BELOW 12,000 FEET WITH NO
SIGNIFICANT WEATHER AND/OR OBSTRUCTION TO VISIBILITY.

MIZ047>049-052>055-059>063-066>070-074>076-081>083-230200-
SOUTHEAST LOWER MICHIGAN

CITY           SKY/WX    TMP DP  RH WIND       PRES   REMARKS
ADRIAN         PTCLDY    77  71  82 CALM      29.98R
ALMA           PTCLDY    70  62  77 NE5       30.02R
ANN ARBOR      MOCLDY    77  69  76 SE5       29.98R
BAD AXE        CLEAR     64  63  97 NE3       30.04S
CARO           CLOUDY    71  65  83 E5        30.02R
DETROIT CITY   PTCLDY    76  64  66 NE7       29.99R
DETROIT        PTCLDY    75  65  70 E7        29.99R
FLINT          CLOUDY    77  65  66 NE10      30.01R
GROSSE ILE     CLEAR     73  66  78 NE10      29.97R
HILLSDALE      CLOUDY    76  74  93 CALM      30.00R
HOWELL         CLOUDY    74  68  81 NE6       30.00R

CITY           SKY/WX    TMP DP  RH WIND       PRES   REMARKS
JACKSON        MOCLDY    75  71  87 CALM      29.99R
LAMBERTVILLE   PTCLDY    73  70  88 CALM      29.98R
LANSING        MOCLDY    74  68  81 NE6       30.00R
LAPEER         CLOUDY    70  64  81 E3        30.02R
MASON          MOCLDY    74  70  87 NE5       30.00R
MONROE         PTCLDY    73  70  88 CALM      29.96R
MT. CLEMENS    CLOUDY    71  61  70 NE10      29.99R
PONTIAC        PTCLDY    73  66  78 E8        30.00R
PORT HOPE        N/A     63  62  97 N3        30.03S
PORT HURON     MOCLDY    64  63  94 N3        30.02R
TRI CITIES     CLOUDY    71  65  81 NE6       30.03R
TROY           PTCLDY    74  64  70 NE8       30.02R
SAGINAW HB     MOCLDY    68  68 100 CALM      30.01R FOG
$$
MIZ043>046-050>051-056>058-064>065-071>073-077>080-230200-
SOUTHWEST LOWER MICHIGAN

CITY           SKY/WX    TMP DP  RH WIND       PRES   REMARKS
BATTLE CREEK   CLOUDY    78  71  79 NE3       30.00R
BENTON HARBOR  MOCLDY    74  72  93 CALM      29.97R
BIG RAPIDS     PTCLDY    72  69  92 E5        30.01S
COLDWATER      CLOUDY    78  73  84 N3        29.99R
FREMONT        CLOUDY    75  72  90 E3        29.99R FOG
HOLLAND        CLEAR     76  72  87 E3        29.98R
GRAND RAPIDS   PTCLDY    76  75  97 E6        29.99R
IONIA          FAIR      73  69  88 NE7       29.99R
KALAMAZOO      CLOUDY    78  71  79 CALM      29.99R
LUDINGTON      CLEAR     74  72  91 E3        29.99S
MARSHALL       CLOUDY    74  72  92 W6        29.99R
MOUNT PLEASANT CLOUDY    71  64  79 E5        30.02R
MUSKEGON       MOCLDY    76  71  85 CALM      29.98R
SOUTH HAVEN    CLOUDY    77  75  92 CALM      29.97R
$$
MIZ016>042-230200-
NORTHERN LOWER MICHIGAN

CITY           SKY/WX    TMP DP  RH WIND       PRES   REMARKS
ALPENA         CLEAR     64  63  96 E3        30.05S
BEAVER ISLAND  CLOUDY    71  65  83 E5        30.03R
BELLAIRE       MOCLDY    73  67  81 CALM      30.01R
CADILLAC       CLOUDY    72  68  88 E3        30.03R
CHARLEVOIX     MOCLDY    74  67  80 E6        30.05R
FRANKFORT      PTCLDY    75  68  78 CALM      29.99R
GAYLORD        CLOUDY    72  64  76 E5        30.05R
GRAYLING       CLOUDY    74  68  81 E3        30.04S
HARBOR SPRINGS CLOUDY    73  65  76 NE8       30.03R
HOUGHTON LAKE  CLOUDY    72  67  84 E5        30.04R
MANISTEE       CLEAR     72  66  83 CALM      30.00R
OSCODA         CLOUDY    64  63  98 NE5       30.03S
PELLSTON       CLOUDY    71  65  81 CALM      30.04R
ROGERS CITY    MOCLDY    68  65  90 SE3       30.05S
TRAVERSE CITY  MOCLDY    73  67  81 W3        29.99S
$$
MIZ007>008-015-230200-
EASTERN UPPER MICHIGAN

CITY           SKY/WX    TMP DP  RH WIND       PRES   REMARKS
KINROSS        CLOUDY    70  64  83 S3        30.04S
MACKINAC ISLAN CLOUDY    68  64  85 E7        30.04R
NEWBERRY       CLOUDY    69  65  85 CALM      30.03S
S. S. MARIE    PTCLDY    72  64  76 SE3       30.03R
MUNISING         N/A     70  65  84 CALM      30.01R
$$
MIZ004>006-011>014-085-230200-
CENTRAL UPPER MICHIGAN

CITY           SKY/WX    TMP DP  RH WIND       PRES   REMARKS
MANISTIQUE     MOCLDY    67  64  87 E3        30.02S
ESCANABA       MOCLDY    68  63  83 E6        30.01R
MENOMINEE      MOCLDY    70  66  88 E10       29.98S
SAWYER-GWINN   CLOUDY    68  64  88 E3        30.03R
$$
MIZ001>003-009>011-084-230200-
WESTERN UPPER MICHIGAN

CITY           SKY/WX    TMP DP  RH WIND       PRES   REMARKS
IRON MOUNTAIN  CLOUDY    73  69  87 SE7       29.99S
HOUGHTON       CLOUDY    63  59  87 E8        30.02S
COPPER HARBOR    N/A     55  53  93 CALM      30.03R
IRONWOOD       CLOUDY    61  61 100 W3        30.00F VSB 1/2
$$

ABBREVIATIONS USED IN REMARKS
   TC - TEMPERATURE IN CELSIUS
  WCI - WIND CHILL INDEX
   HX - HEAT INDEX
  VSB - VISIBILITY



USA.gov is the U.S. government's official web portal to all federal, state and local government web resources and services.